FENGYUN 1C DEB, 36160

Orbit data source: Space-Track

FENGYUN 1C DEB, 36160 is space debris in SSO originally from a launch on Mon, 10 May 1999 UTC launched from the Taiyaun Space Center, China (TSC). Fengyun 1C debris stems from the Chinese weather satellite Fengyun-1C, which was intentionally destroyed by a Chinese anti-satellite missile in 2007. This event dramatically increased the amount of space debris, with thousands of trackable fragments posing hazards to satellites and human spaceflight. The Fengyun 1C debris cloud has become a focal point in discussions about space sustainability and the need for international regulations to prevent the creation of new debris.

Loading next visibility...
Identifier
36160, 1999-025DSH
Orbit
SSO
Country
Flag of CNCN / PRC
Related business
Manufacturer
Unknown
Mission
Spacecraft
Bus & Motor
Unknown
Mass
Unknown
Launch date (UTC)
1999-05-10 (27 years ago)
Launch vehicle
Unknown
Launch site
Taiyaun Space Center, China (TSC)
Object type
Payload
Rocket body
Debris
Shape & HBR
Unknown shape, 0.1 m
Radar Cross Section
Small (<0.1 m²)

Expand to show TLE details & history
Last TLE update: 2 months ago

TLE from 2 months ago
0 FENGYUN 1C DEB
1 36160U 99025DSH 25245.34501159  .00000810  00000-0  41553-3 0  9997
2 36160  98.1538  95.9916 0136247  86.2790 275.3952 14.13074255586202
Epoch: 2025-09-02T08:16Z
TLE epoch observation values (Epoch: 2025-09-02T08:16:49.001Z)
Latitude
-0.00002°
Longitude
-9.95015°
Altitude
843.866 km
Speed
7.435 km/s
True Right ascension
06h 23m 57s
True Declination
0° 00' 00"
Sunlit
Object was in daylight at epoch
Visualization orbit readout
Latitude
Unknown
Longitude
Unknown
Altitude
Unknown
Speed
Unknown
Apparent Right ascension
Unknown
Apparent Declination
Unknown
Sunlit
N/A
Visualization observer readout
Local Sidereal Time
03:38:15
Azimuth
Unknown
Elevation
Unknown
Doppler factor
Unknown
Orbital elements
Apogee altitude
944.439 km
Perigee altitude
747.585 km
Semi-major axis
7,224.149 km
Eccentricity
0.01362
Inclination
98.1538°
RAAN
95.9916°
Arg. of periapsis
86.279°
True anomaly
273.83854°
Mean anomaly
275.3952°
Eccentric anomaly
274.6171°
Mean motion
3.53479 °/min
Orbital period
101.84 mins
BSTAR
0.00041553
Loading maneuver chart data...
Computing Atmospheric mass density...

Documentation

Showing up to 5 results
|